METAR AND TAF INFORMATION
METAR FOR MUCL
ADDS - METARS form results

(0902 UTC 07 August 2020)
Data provider http://aviationweather.gov/metar/data/
 
METAR text: MUCL 070805Z AUTO 05008KT 020V080 29/24 Q1016
Conditions at: MUCL (CAYO LARGO D SUR, CU) observed 0805 UTC 07 August 2020
Temperature: 29.0°C (84°F)
Dewpoint: 24.0°C (75°F) [RH = 74%]
Pressure (altimeter): 30.00 inches Hg (1016.0 mb)
Winds: from the NE (50 degrees) at 9 MPH (8 knots; 4.1 m/s)
Visibility: missing
Ceiling: unknown
Clouds: missing
Weather: no significant weather observed at this time

 AIRPORT MAP

 RUNWAY INFORMATION
Runway 12 Runway length 9869 ft Runway width 148 ft
Runway elevation 7 ft Runway displaced threshold 0 ft Runway heading 116
Runway 30 Runway length 9869 ft Runway width 148 ft
Runway elevation 10 ft Runway displaced threshold 0 ft Runway heading 296

 AIRPORT FREQUENCIES
Type A/G Name CAYO LARGO Frequency 340.7 MHZ
Type APP Name CAYO LARGO Frequency 120.1 MHZ
Type TWR Name CAYO LARGO Frequency 118.5 MHZ

 AIRPORT NEAR NAVIGATION AIDS
Type VOR-DME Name Cayo Largo Del Sur Frequency 112100 KHZ
Type NDB Name Cayo Largo Del Sur Frequency 230 KHZ